Location: Caicarita
(10.0502°N, 67.6875°W)
Time: 00:15:12
(UTC+00:00)

SL-08 R/B - Pass Details

Date: 05 August 2024
Orbit: 670 x 732 km, 98.5° (Epoch: 09 September)

Event Time Altitude Azimuth Distance (km) Brightness Sun altitude
Rises 23:00:49 0° 14° (NNE) 3,058 6.7 -2.8°
Reaches altitude 10° 23:03:03 10° 16° (NNE) 2,152 5.9 -3.3°
Maximum altitude 23:07:45 77° 102° (ESE) 727 3.3 -4.4°
Drops below altitude 10° 23:12:34 10° 188° (S) 2,193 5.8 -5.6°
Sets 23:14:51 0° 190° (S) 3,122 6.6 -6.1°
